Regional Weather Roundup
Issued by NWS

Home | Current Version | Previous Version | Graphics & Text | Print | Product List | Glossary On
Versions: 1 2 3 4 5 6 7 8 9 10 11 12 13 14 15 16 17 18 19 20 21 22 23 24 25 26 27 28 29 30 31 32 33 34 35 36 37 38 39 40 41 42 43 44 45 46 47 48 49 50
000
ASUS43 KOAX 011510
RWRNE

WEATHER ROUNDUP FOR NEBRASKA
NATIONAL WEATHER SERVICE OMAHA NE
1000 AM CDT WED APR 01 2015

NOTES: SATELLITE DATA IS BEING USED TO AUGMENT CLOUD COVER ABOVE
       12000 FEET.
       "FAIR" INDICATES FEW OR NO CLOUDS BELOW 12,000 FEET WITH NO
       SIGNIFICANT WEATHER AND/OR OBSTRUCTIONS TO VISIBILITY.

  * THESE STATIONS DO NOT REPORT WEATHER SUCH AS RAIN...SNOW OR FOG.

NEZ001>004-019>022-054>056-011600-
NEBRASKA PANHANDLE

CITY           SKY/WX    TMP DP  RH WIND       PRES   REMARKS
SCOTTSBLUFF    CLOUDY    56  29  35 W9        29.70R
ALLIANCE       CLOUDY    58  28  32 W21       29.64R
CHADRON        PTSUNNY   57  32  38 N9        29.68R
KIMBALL        CLOUDY    60  26  27 NW16      29.72S
SIDNEY         CLOUDY    57  29  34 W12       29.70S
$$

NEZ057>060-069>072-079>082-011600-
SOUTHWEST NEBRASKA

CITY           SKY/WX    TMP DP  RH WIND       PRES   REMARKS
NORTH PLATTE   MOSUNNY   63  45  51 S14       29.64F
IMPERIAL       MOSUNNY   61  40  45 SW12      29.66F
LEXINGTON      SUNNY     65  44  46 S26G40    29.66F
MCCOOK         SUNNY     65  44  46 S20G31    29.68S
OGALLALA       PTSUNNY   52  38  58 SW5       29.66S
$$

NEZ005>010-023>029-035>040-094-011600-
NORTH CENTRAL NEBRASKA

CITY           SKY/WX    TMP DP  RH WIND       PRES   REMARKS
VALENTINE      CLOUDY    64  40  41 W17       29.57R
AINSWORTH      CLOUDY    64  43  46 SW25G31   29.55F
BROKEN BOW     MOSUNNY   67  44  43 S28G43    29.62F
O`NEILL        MOSUNNY   66  42  41 S25G33    29.58F
ORD            SUNNY     63  41  44 S22       29.64F
THEDFORD       CLOUDY    61  45  55 SW18G25   29.61F
$$

NEZ041-046>049-061>064-073>077-083>087-011600-
SOUTH CENTRAL NEBRASKA

CITY           SKY/WX    TMP DP  RH WIND       PRES   REMARKS
GRAND ISLAND   SUNNY     66  43  43 S21G33    29.71F
AURORA         SUNNY     65  45  48 S21G26    29.72S
HASTINGS       SUNNY     64  44  48 S21G35    29.71F
HEBRON         SUNNY     65  44  46 S17       29.76F
HOLDREGE       SUNNY     65  43  44 S21G32    29.70F
KEARNEY *      SUNNY     66  43  42 S25G32    29.69F
YORK           SUNNY     64  45  48 S21G29    29.73F
$$

NEZ011>018-030>034-042>045-011600-
NORTHEAST NEBRASKA

CITY           SKY/WX    TMP DP  RH WIND       PRES   REMARKS
NORFOLK        SUNNY     64  43  46 S25G35    29.67F
ALBION         SUNNY     63  42  46 S17G25    29.68F
BLAIR          SUNNY     67  33  28 S24G31    29.76F
COLUMBUS *     SUNNY     64  41  42 S21G26    29.74S
FREMONT        SUNNY     65  36  34 S21G29    29.75F
TEKAMAH        SUNNY     69  36  29 S30G38    29.75F
WAYNE          SUNNY     67  40  38 S32G38    29.69F
$$

NEZ050>053-065>068-078-088>093-011600-
SOUTHEAST NEBRASKA

CITY           SKY/WX    TMP DP  RH WIND       PRES   REMARKS
LINCOLN        SUNNY     68  44  42 S21G32    29.75F
OMAHA EPPLEY   MOSUNNY   65  34  31 S22       29.77F
BEATRICE       SUNNY     66  45  47 S12G20    29.77F
FALLS CITY     SUNNY     67  37  33 S16G25    29.82F
NEBRASKA CITY  SUNNY     65  31  27 S22       29.81S
PLATTSMOUTH    SUNNY     67  29  24 S18G25    29.79F
$$

NEZ044-045-051>053-067-011600-
OMAHA AREA

CITY           SKY/WX    TMP DP  RH WIND       PRES   REMARKS
OMAHA EPPLEY   MOSUNNY   65  34  31 S22       29.77F
BLAIR          SUNNY     67  33  28 S24G31    29.76F
FREMONT        SUNNY     65  36  34 S21G29    29.75F
MILLARD        SUNNY     67  36  32 S15G21    29.77F
OFFUTT AFB     SUNNY     65  34  31 SE15      29.78F
PLATTSMOUTH    SUNNY     67  29  24 S18G25    29.79F
WAHOO          FAIR      67  36  31 S17G24    29.76F
$$


USA.gov is the U.S. government's official web portal to all federal, state and local government web resources and services.